Regional Weather Roundup
Issued by NWS

Home | Current Version | Previous Version | Graphics & Text | Print | Product List | Glossary Off
Versions: 1 2 3 4 5 6 7 8 9 10 11 12 13 14 15 16 17 18 19 20 21 22 23 24 25 26 27 28 29 30 31 32 33 34 35 36 37 38 39 40 41 42 43 44 45 46 47 48

000
ASUS43 KDMX 041107
RWRIA

WEATHER ROUNDUP FOR IOWA
NATIONAL WEATHER SERVICE DES MOINES IA
600 AM CDT SAT JUL 04 2015

NOTE: "FAIR" INDICATES FEW OR NO CLOUDS BELOW 12,000 FEET WITH NO
SIGNIFICANT WEATHER AND/OR OBSTRUCTIONS TO VISIBILITY.

* - THESE STATIONS ARE NOT NWS STATIONS...THUS NOT UNDER NWS
QUALITY CONTROL.  THEY ALSO DO NOT REPORT WEATHER SUCH
AS PRECIPITATION OR FOG.

IAZ001>003-012>014-020>022-031>034-043>046-041200-
   NORTHWEST IOWA

CITY           SKY/WX    TMP DP  RH WIND       PRES   REMARKS
CARROLL *      PTCLDY    54  52  94 CALM      30.00R
CHEROKEE *     CLEAR     54  54 100 CALM      29.99S FOG
DENISON *      PTCLDY    52  52 100 MISG      29.98S
LE MARS *        N/A     55  55 100 CALM      29.99S FOG
ORANGE CITY *  CLEAR     57  54  88 CALM      29.98F
SHELDON *      PTCLDY    57  57 100 CALM      29.97F FOG
SIOUX CITY     CLEAR     57  53  86 E5        29.98F
SPENCER        CLEAR     56  52  86 CALM      29.99R FOG
STORM LAKE *   CLEAR     59  54  82 SW6       30.01R
$$

IAZ055>058-069>071-079>083-090>094-041200-
   SOUTHWEST IOWA

CITY           SKY/WX    TMP DP  RH WIND       PRES   REMARKS
ATLANTIC *     MOCLDY    52  52 100 CALM      30.01R
AUDUBON *      CLEAR     48  46  93 CALM      30.02R
CLARINDA *     CLEAR     52  52 100 CALM      30.02R FOG
COUNCIL BLFS * CLEAR     57  54  88 SE6       30.00S
CRESTON *      CLEAR     59  55  88 CALM      30.01R
HARLAN  *      CLEAR     50  50 100 CALM      30.04R FOG
LAMONI         CLEAR     60  54  80 CALM      30.00R
RED OAK *      PTCLDY    54  54 100 CALM      30.01R
SHENANDOAH *   CLEAR     55  55 100 CALM      30.01R FOG
$$

IAZ047>049-059>061-072>074-084-041200-
   CENTRAL IOWA

CITY           SKY/WX    TMP DP  RH WIND       PRES   REMARKS
AMES           CLEAR     52  51  97 CALM      30.00R
ANKENY *       CLEAR     54  54 100 CALM      29.99R FOG
CHARITON *     CLEAR     57  54  88 W5        30.00R
DES MOINES     PTCLDY    61  55  81 CALM      29.99R
GRINNELL*      CLEAR     57  55  94 W3        30.01R
KNOXVILLE *    CLEAR     57  54  88 W3        29.99R
MARSHALLTOWN   CLEAR     57  55  93 CALM      29.99R
PELLA *        CLEAR     57  57 100 CALM      30.01R
PERRY *          N/A     54  54 100 CALM      30.00R
$$

IAZ004>006-015-016-023>025-035-036-041200-
   NORTH CENTRAL IOWA

CITY           SKY/WX    TMP DP  RH WIND       PRES   REMARKS
ALGONA *       CLEAR     59  55  88 SW7       29.99S
CLARION *      CLEAR     55  52  88 S5        29.99S
ESTHERVILLE    CLEAR     58  55  90 W6        29.98S FOG
FORT DODGE *   CLEAR     54  52  94 CALM      30.00S
MASON CITY     CLEAR     59  55  87 W6        30.00R
FOREST CITY *  CLEAR     52  52 100 CALM      29.99S FOG
IOWA FALLS *     N/A     55  52  88 CALM      30.01R
$$

IAZ007>011-017>019-026>030-037>042-050>054-066-041200-
   NORTHEAST IOWA

CITY           SKY/WX    TMP DP  RH WIND       PRES   REMARKS
CEDAR RAPIDS   CLEAR     55  55 100 CALM      29.98R
CHARLES CITY * CLEAR     55  55 100 W3        29.99R
CLINTON *      CLEAR     55  52  88 NW6       30.01R
DECORAH *        N/A    N/A N/A N/A MISG        N/A
DUBUQUE        CLEAR     58  54  86 CALM      29.99R
MONTICELLO *   CLEAR     54  54 100 MISG      29.99R
OELWEIN *      CLEAR     57  55  94 CALM      30.00R
WATERLOO       CLEAR     54  52  93 MISG      29.98R
$$

IAZ064-065-067-068-078-041200-
   EAST CENTRAL IOWA

CITY           SKY/WX    TMP DP  RH WIND       PRES   REMARKS
DAVENPORT      CLEAR     55  53  93 CALM      29.98S FOG
IOWA CITY      CLEAR     56  54  93 CALM      30.00R
MT. PLEASANT * CLEAR     59  57  94 N5        29.98S
MUSCATINE *    CLEAR     55  55 100 CALM      29.99R
QUAD CITIES    CLEAR     56  53  90 CALM      29.98R FOG
$$

IAZ062-063-075>077-085>089-095>099-041200-
   SOUTHEAST IOWA

CITY           SKY/WX    TMP DP  RH WIND       PRES   REMARKS
BURLINGTON     CLEAR     58  57  97 CALM      29.97S FOG
FAIRFIELD *    CLEAR     54  54 100 NW3       29.99R FOG
FORT MADISON * CLEAR     57  57 100 CALM      29.99R FOG
KEOKUK *       CLEAR     59  59 100 CALM      29.97R FOG
OSKALOOSA *      N/A     55  54  94 NW3       29.99S
CENTERVILLE *  CLEAR     57  55  94 W3        30.01R
OTTUMWA        CLEAR     56  56 100 NW3       29.97S
WASHINGTON *   CLEAR     55  55 100 CALM      30.00R
$$

ABBREVIATIONS USED IN REMARKS
   TC - TEMPERATURES IN CELSIUS
  WCI - WIND CHILL INDEX
   HX - HEAT INDEX
  VSB - VISIBILITY
$$



USA.gov is the U.S. government's official web portal to all federal, state and local government web resources and services.